User: anonymous   Login
Location: Huesca
(42.1318°N, 0.4078°W)
Time: 15:18:26
(UTC+02:00)
Language:

Vanguard 1 Rocket - Orbit

View from above orbital plane
View from above orbital plane
View from above satellite
View from above satellite

Ground track
Ground track

The orbit data is extracted from the following two-line orbital elements,

1 00016U 58002A   24195.26616467  .00000478  00000-0  67666-3 0  9994
2 00016  34.2585 180.7373 2024942  28.0512 341.5750 10.49317729614959
Epoch (UTC): 13 July 2024 06:23:16
Eccentricity: 0.2024942
inclination: 34.2585°
perigee height: 650 km
apogee height: 4219 km
right ascension of ascending node: 180.7373°
argument of perigee: 28.0512°
revolutions per day: 10.49317729
mean anomaly at epoch: 341.5750°
orbit number at epoch: 61495

The dashed part of the orbit path shows where the satellite is in the earth's shadow,  

DLR